Flag for Vatican City State Weather past 2 weeks in Vatican City, Vatican City State

Now
64 °F

Passing clouds.


Feels Like: 64 °F
Forecast: 65 / 85 °F
Wind: No wind

Location: Rome / Ciampino

Current Time: Sep 18, 2014 at 8:23:05 AM

Latest Report: Sep 18, 2014 at 7:45 AM


Visibility: N/A

Pressure: 29.98 "Hg

Humidity: 100%

Dew point: 64 °F

Location of Vatican CityLocation

Historic Weather in Vatican City — Graph

°F

Vatican City temperature yesterday

Maximum temperature yesterday: 81 °F (at 4:15 PM)
Minimum temperature yesterday: 63 °F (at 5:45 AM)
Average temperature yesterday: 71 °F

Past Weeks' High & Low Weather Summary

 TemperatureHumidityPressure
High84 °F (Sep 8, 3:45 PM)100% (Sep 4, 5:45 AM)30.04 "Hg (Sep 4, 5:45 AM)
Low57 °F (Sep 13, 7:15 AM)28% (Sep 13, 2:45 PM)29.74 "Hg (Sep 3, 6:15 AM)
Average71 °F75%29.90 "Hg
* Reported Sep 3 6:15 AM — Sep 18 6:45 AM, Vatican City, Weather by CustomWeather, © 2014

Note: Actual official high and low records may vary slightly from our data, if they occured in-between our weather recording intervals... More about our weather records

Advertising

Vatican City weather history for previous 24 hours

 ConditionsComfort  
Time TempWeatherWind HumidityBarometerVisibility
6:45 AM
Sep 18
64 °FPassing clouds.No wind94%29.95 "HgN/A
6:15 AM64 °FPassing clouds.1 mph100%29.95 "HgN/A
5:45 AM66 °FPassing clouds.No wind94%29.95 "HgN/A
5:15 AM66 °FPassing clouds.1 mph94%29.95 "HgN/A
4:45 AM66 °FPassing clouds.No wind94%29.95 "HgN/A
4:15 AM66 °FPassing clouds.No wind94%29.95 "HgN/A
3:55 AM66 °FPassing clouds.2 mph94%29.95 "HgN/A
3:15 AM66 °FPassing clouds.2 mph94%29.95 "HgN/A
2:55 AM66 °FPassing clouds.2 mph94%29.95 "HgN/A
2:15 AM68 °FPassing clouds.2 mph88%29.95 "HgN/A
1:15 AM68 °FPassing clouds.2 mph88%29.95 "HgN/A
12:45 AM68 °FPassing clouds.No wind94%29.95 "HgN/A
12:15 AM70 °FPassing clouds.1 mph88%29.95 "HgN/A
11:45 PM
Sep 17
68 °FPassing clouds.1 mph94%29.98 "HgN/A
11:15 PM68 °FPassing clouds.1 mph94%29.98 "HgN/A
10:45 PM68 °FPassing clouds.3 mph94%29.98 "HgN/A
10:15 PM70 °FPassing clouds.1 mph88%29.98 "HgN/A
9:45 PM70 °FPassing clouds.No wind88%29.98 "HgN/A
9:15 PM70 °FPassing clouds.2 mph88%29.98 "HgN/A
8:45 PM72 °FPassing clouds.2 mph83%29.95 "HgN/A
8:15 PM73 °FScattered clouds.1 mph78%29.95 "HgN/A
7:45 PM73 °FScattered clouds.3 mph78%29.92 "HgN/A
7:15 PM75 °FScattered clouds.3 mph74%29.92 "HgN/A
6:45 PM75 °FScattered clouds.3 mph69%29.92 "HgN/A
6:15 PM77 °FScattered clouds.5 mph65%29.92 "HgN/A
5:45 PM77 °FScattered clouds.6 mph69%29.92 "HgN/A
5:15 PM77 °FScattered clouds.6 mph65%29.92 "HgN/A
4:45 PM79 °FScattered clouds.8 mph65%29.92 "HgN/A
4:15 PM81 °FScattered clouds.7 mph58%29.92 "HgN/A
3:45 PM79 °FScattered clouds.5 mph58%29.95 "HgN/A
3:15 PM79 °FScattered clouds.1 mph61%29.95 "HgN/A
2:45 PM79 °FScattered clouds.5 mph58%29.95 "HgN/A
2:15 PM79 °FScattered clouds.5 mph58%29.95 "HgN/A
1:45 PM79 °FScattered clouds.7 mph58%29.95 "HgN/A
1:15 PM79 °FScattered clouds.7 mph61%29.95 "HgN/A
12:45 PM79 °FScattered clouds.3 mph54%29.95 "HgN/A
12:15 PM77 °FScattered clouds.3 mph57%29.98 "HgN/A
11:45 AM77 °FPassing clouds.1 mph57%29.98 "HgN/A
11:15 AM75 °FPassing clouds.1 mph65%29.98 "HgN/A
10:45 AM73 °FPassing clouds.2 mph65%29.95 "HgN/A
10:15 AM72 °FScattered clouds.3 mph69%29.95 "HgN/A
9:45 AM70 °FScattered clouds.5 mph73%29.95 "HgN/A
9:15 AM68 °FScattered clouds.5 mph78%29.95 "HgN/A
8:45 AM66 °FScattered clouds.2 mph78%29.95 "HgN/A
8:15 AM64 °FScattered clouds.1 mph88%29.95 "HgN/A
Weather by CustomWeather, © 2014

See weather overviewHow to use our weather pages